P/2020 O1 ( Lemmon-PanSTARRS )

Japanese version
Home page
Updated on September 6, 2020

---------------------------------------------------------------------

* Profile

Discovery Date July 19 and 20, 2020
Magnitude 20.2 mag, 20.6 mag
Discoverer K. W. Wierzchos (Mt. Lemmon Survey), Pan-STARRS 1 telescope (Haleakala)

* Orbital Elements

Epoch 2020 Apr. 21.0 TT = JDT 2458960.5
T 2020 May 4.09551 TT                                   Rudenko
q   2.3294436            (2000.0)            P               Q
n   0.22891348     Peri.  104.90279     +0.18960166     +0.98184067
a   2.6466010      Node   176.01046     -0.93220727     +0.18203472
e   0.1198357      Incl.    5.22257     -0.30828692     +0.05340651
P   4.31
From 72 observations 2020 June 27-Aug. 16, mean residual 0".4.

* Magnitudes Graph

        m1 = 15.5 + 5 log d + 10.0 log r

---------------------------------------------------------------------

The orbital elements are published on M.P.E.C. 2020-R04.
The magnitudes graphs are made with Comet for Windows.

---------------------------------------------------------------------

Copyright(C) Seiichi Yoshida (comet@aerith.net). All rights reserved.